ETH726 LFML-EGCC

Flight info

Callsign ETH726
Flight time 1h 38m
Altitude 38000
Route ETREK DCT RUSIT DCT BULOL DCT IDAVO DCT BAGBI DCT SIZZA DCT LAULY DCT BRY DCT CLM DCT KOPOR DCT VESAN DCT RATUK DCT SOVAT L613 SANDY UN57 WELIN T420 ELVOS
Aircraft B77W/H-SDE1E2E3FGHIJ2J3J4J5M1RWXY/LB1D1

Departure

Time 2026-05-07 15:01
Airport Marseille Provence Airport (LFML)

Arrival

Time 2026-05-07 16:39
Airport Manchester Airport (EGCC)
Time Latitude Longitude Altitude Speed Heading
2026-05-07 14:30 43.43862 5.22277 49 ft 0 kts 73°
2026-05-07 14:55 43.43854 5.22251 44 ft 4 kts 65°
2026-05-07 14:55 43.43847 5.22222 43 ft 4 kts 102°
2026-05-07 14:55 43.43860 5.22199 44 ft 4 kts 156°
2026-05-07 14:55 43.43880 5.22188 44 ft 0 kts 160°
2026-05-07 14:57 43.43872 5.22192 43 ft 6 kts 160°
2026-05-07 14:58 43.43778 5.22221 49 ft 16 kts 188°
2026-05-07 14:58 43.43690 5.22126 50 ft 16 kts 221°
2026-05-07 14:58 43.43586 5.22152 48 ft 16 kts 149°
2026-05-07 14:58 43.43488 5.22233 53 ft 16 kts 150°
2026-05-07 14:59 43.43383 5.22293 53 ft 16 kts 163°
2026-05-07 14:59 43.43290 5.22382 55 ft 16 kts 137°
2026-05-07 14:59 43.43205 5.22486 56 ft 16 kts 154°
2026-05-07 14:59 43.43130 5.22490 63 ft 9 kts 192°
2026-05-07 15:00 43.43075 5.22457 60 ft 9 kts 222°
2026-05-07 15:00 43.43081 5.22348 60 ft 3 kts 308°
2026-05-07 15:00 43.43085 5.22343 61 ft 6 kts 309°
2026-05-07 15:00 43.43242 5.22110 55 ft 71 kts 314°
2026-05-07 15:01 43.43796 5.21323 47 ft 154 kts 315°
2026-05-07 15:01 43.44655 5.20113 386 ft 188 kts 309°
2026-05-07 15:01 43.45538 5.18772 1284 ft 189 kts 309°
2026-05-07 15:01 43.46398 5.17400 2210 ft 190 kts 308°
2026-05-07 15:02 43.47279 5.15918 2731 ft 213 kts 310°
2026-05-07 15:02 43.48292 5.14357 3408 ft 222 kts 313°
2026-05-07 15:02 43.49407 5.12711 3899 ft 248 kts 313°
2026-05-07 15:02 43.50625 5.10944 4635 ft 262 kts 313°
2026-05-07 15:03 43.51902 5.09134 5606 ft 264 kts 316°
2026-05-07 15:03 43.53286 5.07433 6538 ft 270 kts 317°
2026-05-07 15:03 43.54676 5.05647 7437 ft 275 kts 314°
2026-05-07 15:03 43.56043 5.03779 8420 ft 278 kts 312°
2026-05-07 15:04 43.57392 5.01884 9362 ft 283 kts 313°
2026-05-07 15:04 43.58782 4.99928 10258 ft 288 kts 311°
2026-05-07 15:04 43.60227 4.97889 10759 ft 310 kts 313°
2026-05-07 15:04 43.61817 4.95640 11003 ft 342 kts 311°
2026-05-07 15:05 43.63531 4.93211 11553 ft 361 kts 312°
2026-05-07 15:05 43.65311 4.90687 12487 ft 370 kts 312°
2026-05-07 15:05 43.67143 4.88168 13573 ft 373 kts 317°
2026-05-07 15:05 43.69384 4.86344 14382 ft 387 kts 340°
2026-05-07 15:06 43.71997 4.85376 15186 ft 394 kts 343°
2026-05-07 15:06 43.74668 4.84392 16174 ft 399 kts 343°
2026-05-07 15:06 43.77358 4.83363 17269 ft 403 kts 343°
2026-05-07 15:06 43.80082 4.82305 18278 ft 409 kts 343°
2026-05-07 15:07 43.82841 4.81224 19126 ft 415 kts 342°
2026-05-07 15:07 43.85649 4.80120 20020 ft 420 kts 342°
2026-05-07 15:07 43.88439 4.79020 20908 ft 424 kts 342°
2026-05-07 15:07 43.91296 4.77894 21800 ft 429 kts 341°
2026-05-07 15:08 43.94207 4.76745 22656 ft 435 kts 341°
2026-05-07 15:08 43.97136 4.75588 23498 ft 440 kts 341°
2026-05-07 15:08 44.00103 4.74423 24171 ft 445 kts 342°
2026-05-07 15:08 44.03095 4.73395 24835 ft 451 kts 344°
2026-05-07 15:09 44.06190 4.72449 25485 ft 457 kts 344°
2026-05-07 15:09 44.09325 4.71531 26119 ft 462 kts 345°
2026-05-07 15:09 44.12489 4.70604 26736 ft 467 kts 344°
2026-05-07 15:09 44.15682 4.69654 27369 ft 471 kts 344°
2026-05-07 15:10 44.18902 4.68680 27983 ft 476 kts 343°
2026-05-07 15:10 44.22154 4.67684 28593 ft 480 kts 343°
2026-05-07 15:10 44.25436 4.66671 29135 ft 485 kts 343°
2026-05-07 15:10 44.28701 4.65659 29673 ft 489 kts 343°
2026-05-07 15:11 44.32041 4.64622 30150 ft 493 kts 343°
2026-05-07 15:11 44.35398 4.63580 30587 ft 495 kts 343°
2026-05-07 15:11 44.38775 4.62532 31063 ft 496 kts 343°
2026-05-07 15:11 44.42138 4.61490 31669 ft 493 kts 343°
2026-05-07 15:12 44.45480 4.60452 32273 ft 492 kts 343°
2026-05-07 15:12 44.48820 4.59412 32823 ft 491 kts 343°
2026-05-07 15:12 44.52154 4.58372 33356 ft 490 kts 342°
2026-05-07 15:12 44.55478 4.57334 34009 ft 487 kts 343°
2026-05-07 15:13 44.58738 4.56314 34450 ft 486 kts 343°
2026-05-07 15:13 44.62041 4.55279 34832 ft 488 kts 343°
2026-05-07 15:13 44.65359 4.54248 35185 ft 489 kts 345°
2026-05-07 15:13 44.68764 4.53781 35516 ft 498 kts
2026-05-07 15:14 44.72214 4.54367 35843 ft 501 kts
2026-05-07 15:14 44.75665 4.55160 36177 ft 502 kts
2026-05-07 15:14 44.79116 4.55971 36571 ft 502 kts
2026-05-07 15:14 44.82566 4.56745 36952 ft 502 kts
2026-05-07 15:15 44.86015 4.57471 37323 ft 502 kts
2026-05-07 15:15 44.89473 4.58164 37727 ft 501 kts
2026-05-07 15:15 44.92931 4.58836 37961 ft 504 kts
2026-05-07 15:15 44.96416 4.59507 37987 ft 507 kts
2026-05-07 15:16 45.03462 4.60874 37993 ft 514 kts
2026-05-07 15:16 45.10578 4.62277 37999 ft 516 kts
2026-05-07 15:17 45.17660 4.63677 37992 ft 516 kts
2026-05-07 15:17 45.24614 4.66421 38002 ft 520 kts 18°
2026-05-07 15:18 45.31334 4.70234 38003 ft 519 kts 19°
2026-05-07 15:18 45.38048 4.73958 37994 ft 517 kts 18°
2026-05-07 15:19 45.44730 4.77484 37996 ft 515 kts 17°
2026-05-07 15:19 45.51455 4.80997 38004 ft 514 kts 17°
2026-05-07 15:20 45.58154 4.84523 37999 ft 513 kts 17°
2026-05-07 15:20 45.64847 4.88064 37993 ft 513 kts 17°
2026-05-07 15:21 45.71547 4.91610 38004 ft 512 kts 17°
2026-05-07 15:21 45.78188 4.95124 37995 ft 512 kts 17°
2026-05-07 15:22 45.84876 4.98673 37995 ft 512 kts 17°
2026-05-07 15:22 45.91560 5.02231 38002 ft 512 kts 17°
2026-05-07 15:23 45.98253 5.05803 37984 ft 512 kts 17°
2026-05-07 15:23 46.01644 5.07230 38000 ft 504 kts
2026-05-07 15:23 46.05110 5.07483 38018 ft 496 kts 352°
2026-05-07 15:24 46.08496 5.06730 37994 ft 490 kts 341°
2026-05-07 15:24 46.11650 5.05009 38020 ft 481 kts 330°
2026-05-07 15:24 46.17687 5.00914 38016 ft 484 kts 331°
2026-05-07 15:25 46.23857 4.96924 38015 ft 486 kts 332°
2026-05-07 15:25 46.30062 4.92969 38007 ft 488 kts 332°
2026-05-07 15:26 46.36268 4.88988 38003 ft 488 kts 332°
2026-05-07 15:26 46.42480 4.84988 38003 ft 488 kts 332°
2026-05-07 15:27 46.48639 4.81012 38018 ft 487 kts 332°
2026-05-07 15:27 46.54847 4.76996 38008 ft 487 kts 332°
2026-05-07 15:28 46.61037 4.72982 37999 ft 487 kts 332°
2026-05-07 15:28 46.66175 4.69642 38004 ft 486 kts 332°
2026-05-07 15:29 46.72355 4.65614 38000 ft 486 kts 332°
2026-05-07 15:29 46.78526 4.61583 38006 ft 486 kts 332°
2026-05-07 15:30 46.84703 4.57547 37998 ft 486 kts 332°
2026-05-07 15:30 46.90887 4.53528 38011 ft 486 kts 332°
2026-05-07 15:31 46.97084 4.49491 38010 ft 487 kts 332°
2026-05-07 15:31 47.03235 4.45470 38004 ft 487 kts 332°
2026-05-07 15:32 47.09417 4.41416 38008 ft 487 kts 332°
2026-05-07 15:32 47.15604 4.37348 38011 ft 487 kts 332°
2026-05-07 15:33 47.21792 4.33270 38007 ft 487 kts 332°
2026-05-07 15:33 47.27983 4.29180 38015 ft 487 kts 332°
2026-05-07 15:34 47.34163 4.25085 38022 ft 487 kts 332°
2026-05-07 15:34 47.40343 4.20980 38022 ft 487 kts 332°
2026-05-07 15:35 47.46528 4.16859 38018 ft 487 kts 332°
2026-05-07 15:35 47.52708 4.12734 38026 ft 487 kts 332°
2026-05-07 15:36 47.58862 4.08621 38006 ft 488 kts 332°
2026-05-07 15:36 47.65053 4.04484 38010 ft 487 kts 332°
2026-05-07 15:37 47.71235 4.00342 38025 ft 488 kts 332°
2026-05-07 15:37 47.77421 3.96184 38027 ft 488 kts 332°
2026-05-07 15:38 47.83609 3.92012 38023 ft 487 kts 332°
2026-05-07 15:38 47.89749 3.87862 38018 ft 488 kts 332°
2026-05-07 15:39 47.95923 3.83678 38033 ft 487 kts 332°
2026-05-07 15:39 48.02095 3.79485 38030 ft 487 kts 332°
2026-05-07 15:40 48.08284 3.75269 38040 ft 487 kts 332°
2026-05-07 15:40 48.14275 3.70624 38037 ft 483 kts 323°
2026-05-07 15:41 48.19438 3.64355 38035 ft 478 kts 311°
2026-05-07 15:41 48.23930 3.57023 38038 ft 477 kts 309°
2026-05-07 15:42 48.28381 3.49643 38035 ft 477 kts 310°
2026-05-07 15:42 48.32873 3.42304 38042 ft 477 kts 310°
2026-05-07 15:43 48.37385 3.34968 38033 ft 478 kts 312°
2026-05-07 15:43 48.42617 3.28714 38043 ft 484 kts 325°
2026-05-07 15:44 48.48679 3.24181 38041 ft 488 kts 334°
2026-05-07 15:44 48.54969 3.20304 38039 ft 489 kts 335°
2026-05-07 15:45 48.61261 3.16371 38052 ft 489 kts 334°
2026-05-07 15:45 48.67505 3.12374 38037 ft 490 kts 334°
2026-05-07 15:46 48.76910 3.06307 38031 ft 490 kts 334°
2026-05-07 15:47 48.83185 3.02251 38037 ft 490 kts 334°
2026-05-07 15:47 48.89196 2.97480 38041 ft 487 kts 327°
2026-05-07 15:48 48.95011 2.92298 38036 ft 487 kts 327°
2026-05-07 15:48 49.00859 2.87085 38040 ft 487 kts 327°
2026-05-07 15:49 49.06730 2.81897 38049 ft 487 kts 327°
2026-05-07 15:49 49.12610 2.76711 38044 ft 488 kts 327°
2026-05-07 15:50 49.18453 2.71543 38043 ft 487 kts 327°
2026-05-07 15:50 49.24320 2.66335 38037 ft 487 kts 327°
2026-05-07 15:51 49.30187 2.61111 38043 ft 488 kts 327°
2026-05-07 15:51 49.36052 2.55874 38041 ft 488 kts 327°
2026-05-07 15:52 49.41923 2.50618 38045 ft 488 kts 327°
2026-05-07 15:52 49.47796 2.45346 38041 ft 489 kts 327°
2026-05-07 15:53 49.53950 2.40849 38044 ft 492 kts 338°
2026-05-07 15:53 49.60481 2.37820 38049 ft 493 kts 342°
2026-05-07 15:54 49.67088 2.34935 38044 ft 493 kts 341°
2026-05-07 15:54 49.73698 2.31980 38048 ft 493 kts 341°
2026-05-07 15:55 49.80288 2.28975 38041 ft 493 kts 341°
2026-05-07 15:55 49.86880 2.25948 38051 ft 493 kts 341°
2026-05-07 15:56 49.93465 2.22919 38037 ft 494 kts 341°
2026-05-07 15:56 50.00060 2.19880 38051 ft 494 kts 341°
2026-05-07 15:57 50.06612 2.16852 38041 ft 494 kts 341°
2026-05-07 15:57 50.13198 2.13800 38051 ft 494 kts 341°
2026-05-07 15:58 50.19786 2.10738 38058 ft 494 kts 341°
2026-05-07 15:58 50.26373 2.07668 38051 ft 494 kts 341°
2026-05-07 15:59 50.32948 2.04540 38052 ft 492 kts 338°
2026-05-07 15:59 50.39029 1.99765 38059 ft 487 kts 324°
2026-05-07 16:00 50.44283 1.93221 38062 ft 484 kts 316°
2026-05-07 16:00 50.49313 1.86180 38056 ft 484 kts 316°
2026-05-07 16:01 50.54378 1.79163 38054 ft 485 kts 316°
2026-05-07 16:01 50.59472 1.72173 38048 ft 486 kts 316°
2026-05-07 16:02 50.64533 1.65216 38080 ft 486 kts 316°
2026-05-07 16:02 50.69638 1.58164 38065 ft 487 kts 316°
2026-05-07 16:03 50.74400 1.51566 38071 ft 487 kts 316°
2026-05-07 16:03 50.79457 1.44541 38064 ft 487 kts 316°
2026-05-07 16:04 50.84058 1.38140 38070 ft 487 kts 316°
2026-05-07 16:04 50.88860 1.31442 38060 ft 487 kts 316°
2026-05-07 16:05 50.93897 1.24394 38062 ft 487 kts 316°
2026-05-07 16:05 50.98970 1.17272 38070 ft 487 kts 316°
2026-05-07 16:06 51.04049 1.10122 38082 ft 487 kts 316°
2026-05-07 16:06 51.09044 1.02933 38084 ft 486 kts 314°
2026-05-07 16:07 51.13873 0.95401 38085 ft 486 kts 313°
2026-05-07 16:07 51.18674 0.87812 37993 ft 486 kts 313°
2026-05-07 16:08 51.23498 0.80244 37948 ft 486 kts 313°
2026-05-07 16:08 51.28335 0.72681 37951 ft 486 kts 313°
2026-05-07 16:09 51.33161 0.65115 38087 ft 486 kts 313°
2026-05-07 16:09 51.37994 0.57511 38066 ft 487 kts 313°
2026-05-07 16:10 51.42817 0.49897 38067 ft 487 kts 313°
2026-05-07 16:10 51.47606 0.42312 38066 ft 487 kts 313°
2026-05-07 16:11 51.52427 0.34652 38067 ft 487 kts 313°
2026-05-07 16:11 51.57238 0.26984 38067 ft 487 kts 313°
2026-05-07 16:12 51.62032 0.19321 38071 ft 487 kts 313°
2026-05-07 16:12 51.66842 0.11578 38064 ft 487 kts 313°
2026-05-07 16:13 51.71596 0.03768 38061 ft 487 kts 312°
2026-05-07 16:13 51.76331 -0.04059 38068 ft 488 kts 312°
2026-05-07 16:14 51.81075 -0.11908 38079 ft 488 kts 312°
2026-05-07 16:14 51.85818 -0.19772 38054 ft 489 kts 312°
2026-05-07 16:15 51.89761 -0.26326 38050 ft 489 kts 312°
2026-05-07 16:15 51.95263 -0.35501 36830 ft 492 kts 312°
2026-05-07 16:15 51.97645 -0.39486 36100 ft 489 kts 312°
2026-05-07 16:16 51.99209 -0.42105 35563 ft 488 kts 312°
2026-05-07 16:16 52.01561 -0.46048 34975 ft 482 kts 312°
2026-05-07 16:16 52.03877 -0.49936 34410 ft 476 kts 312°
2026-05-07 16:16 52.06163 -0.53782 33831 ft 471 kts 312°
2026-05-07 16:17 52.08434 -0.57609 33217 ft 466 kts 312°
2026-05-07 16:17 52.10671 -0.61384 32651 ft 461 kts 312°
2026-05-07 16:17 52.12886 -0.65128 32152 ft 456 kts 312°
2026-05-07 16:17 52.15077 -0.68836 31617 ft 451 kts 312°
2026-05-07 16:18 52.17240 -0.72505 31096 ft 447 kts 312°
2026-05-07 16:18 52.19383 -0.76142 30584 ft 442 kts 312°
2026-05-07 16:18 52.21501 -0.79743 30073 ft 438 kts 312°
2026-05-07 16:18 52.23645 -0.83251 29474 ft 435 kts 316°
2026-05-07 16:19 52.25971 -0.86388 28940 ft 431 kts 322°
2026-05-07 16:19 52.28462 -0.89081 28423 ft 427 kts 328°
2026-05-07 16:19 52.31000 -0.91565 27922 ft 423 kts 328°
2026-05-07 16:19 52.33484 -0.93978 27434 ft 419 kts 328°
2026-05-07 16:20 52.35977 -0.96417 26921 ft 416 kts 328°
2026-05-07 16:20 52.38443 -0.98851 26446 ft 412 kts 327°
2026-05-07 16:20 52.40885 -1.01280 25953 ft 409 kts 327°
2026-05-07 16:20 52.43305 -1.03696 25463 ft 406 kts 327°
2026-05-07 16:21 52.45712 -1.06103 24980 ft 403 kts 327°
2026-05-07 16:21 52.48098 -1.08492 24503 ft 401 kts 327°
2026-05-07 16:21 52.50465 -1.10873 24031 ft 398 kts 326°
2026-05-07 16:21 52.52816 -1.13259 23545 ft 396 kts 326°
2026-05-07 16:22 52.55155 -1.15636 23004 ft 394 kts 326°
2026-05-07 16:22 52.57480 -1.17997 22497 ft 390 kts 326°
2026-05-07 16:22 52.59779 -1.20324 22032 ft 387 kts 326°
2026-05-07 16:22 52.62068 -1.22640 21562 ft 384 kts 326°
2026-05-07 16:23 52.64330 -1.24933 21103 ft 381 kts 326°
2026-05-07 16:23 52.66579 -1.27216 20641 ft 378 kts 326°
2026-05-07 16:23 52.68783 -1.29457 20196 ft 375 kts 326°
2026-05-07 16:23 52.71026 -1.31739 19736 ft 373 kts 326°
2026-05-07 16:24 52.73203 -1.33953 19319 ft 370 kts 326°
2026-05-07 16:24 52.75394 -1.36182 18918 ft 368 kts 326°
2026-05-07 16:24 52.77568 -1.38396 18487 ft 366 kts 326°
2026-05-07 16:24 52.79731 -1.40603 18025 ft 364 kts 326°
2026-05-07 16:25 52.81880 -1.42797 17559 ft 362 kts 326°
2026-05-07 16:25 52.84013 -1.44979 17116 ft 359 kts 326°
2026-05-07 16:25 52.86136 -1.47153 16697 ft 357 kts 326°
2026-05-07 16:25 52.88245 -1.49317 16265 ft 357 kts 326°
2026-05-07 16:26 52.90357 -1.51485 15866 ft 357 kts 326°
2026-05-07 16:26 52.92464 -1.53650 15454 ft 356 kts 326°
2026-05-07 16:26 52.94566 -1.55812 15036 ft 353 kts 326°
2026-05-07 16:26 52.96624 -1.57933 14642 ft 352 kts 326°
2026-05-07 16:27 52.98697 -1.60071 14205 ft 350 kts 326°
2026-05-07 16:27 53.00763 -1.62201 13822 ft 349 kts 326°
2026-05-07 16:27 53.02823 -1.64331 13367 ft 349 kts 326°
2026-05-07 16:27 53.04878 -1.66469 12921 ft 346 kts 324°
2026-05-07 16:28 53.06662 -1.69015 12522 ft 335 kts 309°
2026-05-07 16:28 53.08150 -1.71982 12142 ft 333 kts 306°
2026-05-07 16:28 53.09606 -1.74982 11752 ft 334 kts 307°
2026-05-07 16:28 53.11087 -1.77956 11366 ft 333 kts 307°
2026-05-07 16:29 53.12547 -1.80830 10942 ft 317 kts 308°
2026-05-07 16:29 53.13930 -1.83521 10574 ft 301 kts 308°
2026-05-07 16:29 53.15262 -1.86111 10232 ft 290 kts 307°
2026-05-07 16:29 53.16570 -1.88662 9901 ft 289 kts 307°
2026-05-07 16:30 53.17879 -1.91217 9535 ft 290 kts 307°
2026-05-07 16:30 53.19185 -1.93766 9182 ft 286 kts 307°
2026-05-07 16:30 53.20448 -1.96228 8840 ft 272 kts 307°
2026-05-07 16:30 53.21652 -1.98577 8531 ft 265 kts 307°
2026-05-07 16:31 53.22869 -2.00925 8223 ft 268 kts 312°
2026-05-07 16:31 53.24442 -2.02563 7873 ft 273 kts 344°
2026-05-07 16:31 53.26327 -2.02694 7567 ft 271 kts
2026-05-07 16:31 53.28204 -2.02435 7239 ft 271 kts
2026-05-07 16:32 53.30094 -2.02194 6893 ft 273 kts
2026-05-07 16:32 53.31993 -2.01950 6550 ft 274 kts
2026-05-07 16:32 53.33903 -2.01710 6208 ft 275 kts
2026-05-07 16:32 53.35791 -2.01472 5822 ft 266 kts
2026-05-07 16:33 53.37603 -2.01248 5548 ft 263 kts
2026-05-07 16:33 53.39400 -2.01026 5167 ft 253 kts
2026-05-07 16:33 53.41117 -2.00814 4844 ft 241 kts
2026-05-07 16:33 53.42735 -2.00616 4515 ft 226 kts
2026-05-07 16:34 53.44250 -2.00428 4256 ft 211 kts
2026-05-07 16:34 53.45665 -2.00784 4065 ft 203 kts 330°
2026-05-07 16:34 53.46586 -2.02377 3841 ft 185 kts 287°
2026-05-07 16:34 53.46624 -2.04379 3558 ft 170 kts 242°
2026-05-07 16:35 53.45899 -2.05853 3369 ft 165 kts 219°
2026-05-07 16:35 53.45069 -2.07227 3120 ft 168 kts 223°
2026-05-07 16:35 53.44305 -2.08682 2862 ft 163 kts 226°
2026-05-07 16:35 53.43607 -2.10115 2648 ft 155 kts 226°
2026-05-07 16:36 53.42934 -2.11523 2463 ft 157 kts 227°
2026-05-07 16:36 53.42261 -2.12946 2268 ft 152 kts 227°
2026-05-07 16:36 53.41606 -2.14324 2051 ft 150 kts 227°
2026-05-07 16:36 53.40959 -2.15686 1827 ft 147 kts 227°
2026-05-07 16:37 53.40328 -2.17021 1630 ft 147 kts 227°
2026-05-07 16:37 53.39692 -2.18358 1460 ft 144 kts 227°
2026-05-07 16:37 53.39100 -2.19607 1263 ft 135 kts 227°
2026-05-07 16:37 53.38519 -2.20847 1076 ft 135 kts 228°
2026-05-07 16:38 53.37945 -2.22135 856 ft 143 kts 230°
2026-05-07 16:38 53.37318 -2.23456 661 ft 144 kts 229°
2026-05-07 16:38 53.36689 -2.24768 417 ft 143 kts 229°
2026-05-07 16:38 53.36087 -2.26023 250 ft 134 kts 230°
2026-05-07 16:39 53.35556 -2.27120 245 ft 102 kts 230°
2026-05-07 16:39 53.35228 -2.27802 257 ft 53 kts 231°
2026-05-07 16:39 53.35034 -2.28210 261 ft 36 kts 236°
2026-05-07 16:39 53.34955 -2.28529 265 ft 26 kts 257°
2026-05-07 16:40 53.34944 -2.28635 265 ft 7 kts 262°
2026-05-07 16:40 53.34943 -2.28647 266 ft 1 kts 262°
2026-05-07 16:40 53.34942 -2.28656 266 ft 1 kts 262°
2026-05-07 16:40 53.34942 -2.28666 266 ft 0 kts 268°
2026-05-07 16:41 53.34942 -2.28672 266 ft 1 kts 268°
2026-05-07 16:41 53.34942 -2.28677 266 ft 0 kts 271°
2026-05-07 16:48 53.34943 -2.28686 266 ft 2 kts 280°
2026-05-07 16:48 53.34963 -2.28727 266 ft 0 kts 320°
2026-05-07 16:48 53.34984 -2.28736 265 ft 6 kts 357°
2026-05-07 16:49 53.35019 -2.28691 265 ft 0 kts 66°
2026-05-07 16:49 53.35024 -2.28680 265 ft 2 kts 53°
2026-05-07 16:49 53.35037 -2.28663 264 ft 3 kts 38°
2026-05-07 16:49 53.35068 -2.28620 264 ft 8 kts 43°
2026-05-07 16:50 53.35113 -2.28544 263 ft 10 kts 47°
2026-05-07 16:50 53.35159 -2.28449 262 ft 11 kts 53°
2026-05-07 16:50 53.35209 -2.28342 261 ft 13 kts 47°
2026-05-07 16:50 53.35274 -2.28245 259 ft 13 kts 36°
2026-05-07 16:51 53.35362 -2.28182 259 ft 14 kts 18°
2026-05-07 16:51 53.35463 -2.28140 258 ft 15 kts 21°
2026-05-07 16:51 53.35554 -2.28042 257 ft 16 kts 45°
2026-05-07 16:51 53.35624 -2.27909 256 ft 13 kts 36°
2026-05-07 16:52 53.35708 -2.27853 255 ft 14 kts 351°
2026-05-07 16:52 53.35793 -2.27867 255 ft 12 kts 358°
2026-05-07 16:52 53.35878 -2.27871 255 ft 13 kts
2026-05-07 16:52 53.35970 -2.27840 254 ft 14 kts
2026-05-07 16:53 53.36069 -2.27863 254 ft 15 kts 327°
2026-05-07 16:53 53.36146 -2.27981 255 ft 15 kts 313°
2026-05-07 16:53 53.36219 -2.28108 256 ft 15 kts 316°
2026-05-07 16:53 53.36294 -2.28232 256 ft 15 kts 314°
2026-05-07 16:54 53.36368 -2.28357 257 ft 15 kts 314°
2026-05-07 16:54 53.36427 -2.28459 257 ft 6 kts 317°
2026-05-07 16:54 53.36458 -2.28507 257 ft 7 kts 316°
2026-05-07 16:54 53.36507 -2.28590 258 ft 19 kts 314°
2026-05-07 16:55 53.36614 -2.28749 258 ft 17 kts 351°
2026-05-07 16:55 53.36678 -2.28696 257 ft 0 kts 43°
2026-05-07 16:55 53.36686 -2.28683 257 ft 3 kts 43°
2026-05-07 16:55 53.36709 -2.28667 257 ft 4 kts
2026-05-07 16:56 53.36736 -2.28688 257 ft 4 kts 315°
2026-05-07 16:56 53.36751 -2.28737 257 ft 5 kts 298°
2026-05-07 16:56 53.36761 -2.28760 257 ft 0 kts 310°